Date String (YYYY-MM-DD hh:mm:ss) UTC,Instrument flags,Ambient pressure (hPa),Sample flow (lpm),Bypass flow (lpm),Sample temperature (°C),Ambient temperature (°C),ASC tube jacket temperature (°C),LED temperature (°C),Box temperature (°C),Sample RH (%),Span deviation,Mass concentration (μg/m³),Mass concentration (μg/m³),Mass concentration (μg/m³)
DateTimeUTC,F1_M11,P_M11,Q1_M11,Q2_M11,T1_M11,T2_M11,T3_M11,T4_M11,T5_M11,U1_M11,ZSPAN_M11,X0_M11,X2_M11,X1_M11
2022-08-17 16:00:00,,0833.5,5.01,0.00,30.6,28.2,00.0,39.3,31.9,34.5,0001.5,0014.74,0008.61,0008.00
2022-08-17 16:01:00,,0833.5,5.00,0.00,30.6,28.3,00.0,39.3,31.9,34.8,0001.2,0014.35,0008.52,0007.91
2022-08-17 16:02:00,,0833.5,5.00,0.00,30.6,28.5,00.0,39.2,31.9,34.7,0001.5,0014.30,0008.47,0007.84
2022-08-17 16:03:00,,0833.5,5.00,0.00,30.6,28.6,00.0,39.2,32.0,35.7,0001.4,0013.61,0008.45,0007.80
2022-08-17 16:04:00,,0833.6,4.99,0.00,30.8,28.7,00.0,39.2,32.1,35.4,0001.3,0013.41,0008.45,0007.80
2022-08-17 16:05:00,,0833.6,4.99,0.00,31.2,28.7,00.0,39.2,32.3,34.6,0001.5,0013.03,0008.40,0007.73
2022-08-17 16:06:00,,0833.6,5.00,0.00,31.4,28.8,00.0,39.2,32.3,34.4,0001.6,0012.82,0008.27,0007.62
2022-08-17 16:07:00,,0833.6,5.00,0.00,31.5,28.8,00.0,39.3,32.3,34.5,0001.8,0012.78,0008.24,0007.57
2022-08-17 16:08:00,,0833.5,5.02,0.00,31.5,28.5,00.0,39.3,32.2,35.7,0001.9,0012.58,0008.27,0007.59
2022-08-17 16:09:00,,0833.5,4.99,0.00,31.6,27.9,00.0,39.3,32.1,34.9,0001.7,0012.51,0008.41,0007.74
2022-08-17 16:10:00,,0833.6,5.02,0.00,31.7,27.6,00.0,39.3,32.1,34.6,0001.7,0012.76,0008.60,0007.88
2022-08-17 16:11:00,,0833.5,5.01,0.00,31.7,27.5,00.0,39.4,32.0,34.7,0001.7,0013.15,0008.75,0008.04
2022-08-17 16:12:00,,0833.5,4.99,0.00,31.7,27.6,00.0,39.4,32.0,35.2,0001.9,0013.38,0008.91,0008.20
2022-08-17 16:13:00,,0833.5,5.00,0.00,31.7,27.8,00.0,39.4,32.0,34.9,0001.9,0013.59,0009.01,0008.32
2022-08-17 16:14:00,,0833.6,5.00,0.00,31.8,27.9,00.0,39.5,32.1,34.6,0001.9,0013.66,0009.07,0008.41
2022-08-17 16:15:00,,0833.5,5.00,0.00,31.9,28.1,00.0,39.5,32.2,33.9,0001.9,0013.54,0009.08,0008.45
2022-08-17 16:16:00,,0833.5,5.00,0.00,31.9,28.2,00.0,39.6,32.2,34.1,0001.8,0013.61,0009.16,0008.54
2022-08-17 16:17:00,,0833.5,5.00,0.00,31.9,28.4,00.0,39.6,32.2,34.5,0001.7,0014.32,0009.30,0008.68
2022-08-17 16:18:00,,0833.5,5.00,0.00,31.8,28.5,00.0,39.7,32.2,34.6,0001.7,0014.08,0009.39,0008.79
2022-08-17 16:19:00,,0833.6,5.00,0.00,31.8,28.6,00.0,39.7,32.2,34.4,0001.5,0014.21,0009.49,0008.88
2022-08-17 16:20:00,,0833.5,4.99,0.00,31.8,28.7,00.0,39.8,32.3,34.2,0001.4,0014.28,0009.50,0008.89
2022-08-17 16:21:00,,0833.6,5.00,0.00,31.7,28.8,00.0,39.8,32.3,34.0,0001.4,0014.20,0009.48,0008.89
2022-08-17 16:22:00,,0833.5,5.00,0.00,31.7,28.7,00.0,39.8,32.3,34.4,0001.4,0014.00,0009.47,0008.89
2022-08-17 16:23:00,,0833.5,5.02,0.00,31.6,28.1,00.0,39.7,32.0,34.7,0001.4,0014.17,0009.50,0008.89
2022-08-17 16:24:00,,0833.6,4.98,0.00,31.5,27.6,00.0,39.7,32.0,34.6,0001.5,0014.35,0009.54,0008.92
2022-08-17 16:25:00,,0833.5,5.01,0.00,31.5,27.5,00.0,39.7,31.9,35.3,0001.6,0014.76,0009.63,0008.96
2022-08-17 16:26:00,,0833.5,5.00,0.00,31.5,27.6,00.0,39.7,32.0,35.1,0001.4,0015.09,0009.69,0008.96
2022-08-17 16:27:00,,0833.5,5.00,0.00,31.7,27.7,00.0,39.6,32.1,34.1,0001.5,0014.96,0009.63,0008.90
2022-08-17 16:28:00,,0833.5,4.99,0.00,31.7,27.9,00.0,39.6,32.2,34.3,0001.5,0014.40,0009.60,0008.87
2022-08-17 16:29:00,,0833.5,5.01,0.00,31.8,28.0,00.0,39.7,32.1,33.5,0001.6,0014.55,0009.63,0008.89
2022-08-17 16:30:00,,0833.5,4.99,0.00,31.7,28.2,00.0,39.7,32.1,33.7,0001.7,0014.69,0009.61,0008.88
2022-08-17 16:31:00,,0833.5,4.99,0.00,31.7,28.3,00.0,39.7,32.2,33.5,0001.8,0014.81,0009.67,0008.90
2022-08-17 16:32:00,,0833.5,4.99,0.00,31.7,28.4,00.0,39.7,32.2,33.7,0001.8,0014.96,0009.78,0008.98
2022-08-17 16:33:00,,0833.5,4.99,0.00,31.7,28.5,00.0,39.7,32.2,34.2,0001.8,0015.09,0009.88,0009.07
2022-08-17 16:34:00,,0833.5,5.00,0.00,31.6,28.6,00.0,39.8,32.2,34.2,0001.8,0015.06,0009.95,0009.14
2022-08-17 16:35:00,,0833.5,5.00,0.00,31.6,28.7,00.0,39.8,32.3,33.7,0001.7,0014.94,0009.97,0009.16
2022-08-17 16:36:00,,0833.5,5.00,0.00,31.6,28.8,00.0,39.8,32.2,34.6,0001.7,0015.33,0010.00,0009.20
2022-08-17 16:37:00,,0833.5,5.01,0.00,31.6,28.4,00.0,39.7,32.2,35.3,0001.6,0015.45,0010.17,0009.38
2022-08-17 16:38:00,,0833.5,4.99,0.00,31.7,27.8,00.0,39.7,32.2,34.9,0001.4,0015.67,0010.43,0009.63
2022-08-17 16:39:00,,0833.5,5.00,0.00,31.8,27.6,00.0,39.7,32.2,34.4,0001.4,0015.91,0010.63,0009.81
2022-08-17 16:40:00,,0833.5,5.00,0.00,31.8,27.6,00.0,39.6,32.1,34.4,0001.1,0016.11,0010.75,0009.90
2022-08-17 16:41:00,,0833.5,5.01,0.00,31.8,27.7,00.0,39.7,32.0,33.4,0001.0,0016.01,0010.82,0009.95
2022-08-17 16:42:00,,0833.5,4.99,0.00,31.7,27.9,00.0,39.7,32.0,33.9,0001.2,0015.98,0010.80,0009.94
2022-08-17 16:43:00,,0833.4,4.99,0.00,31.7,28.0,00.0,39.7,32.1,34.2,0001.2,0016.10,0010.84,0009.97
2022-08-17 16:44:00,,0833.4,4.99,0.00,31.6,28.2,00.0,39.7,32.1,34.6,0001.3,0016.13,0010.83,0009.93
2022-08-17 16:45:00,,0833.4,5.01,0.00,31.6,28.3,00.0,39.7,32.2,35.5,0001.1,0016.20,0010.88,0009.98
2022-08-17 16:46:00,,0833.4,4.99,0.00,31.8,28.4,00.0,39.8,32.4,36.0,0000.8,0016.48,0010.98,0010.09
2022-08-17 16:47:00,,0833.5,5.00,0.00,32.2,28.6,00.0,39.8,32.5,35.0,0000.9,0016.39,0011.02,0010.13
2022-08-17 16:48:00,,0833.4,5.00,0.00,32.4,28.7,00.0,39.8,32.6,34.0,0001.1,0016.35,0010.93,0010.02
2022-08-17 16:49:00,,0833.4,5.00,0.00,32.5,28.8,00.0,39.9,32.6,33.9,0001.2,0016.36,0010.81,0009.89
2022-08-17 16:50:00,,0833.4,5.01,0.00,32.6,28.5,00.0,39.9,32.5,33.6,0001.2,0016.26,0010.71,0009.78
2022-08-17 16:51:00,,0833.4,4.99,0.00,32.5,27.9,00.0,39.9,32.3,33.4,0001.3,0016.52,0010.61,0009.71
2022-08-17 16:52:00,,0833.5,5.00,0.00,32.4,27.6,00.0,39.9,32.2,34.1,0001.3,0017.31,0010.58,0009.73
2022-08-17 16:53:00,,0833.4,5.01,0.00,32.3,27.6,00.0,40.0,32.1,34.4,0001.1,0017.30,0010.58,0009.75
2022-08-17 16:54:00,,0833.4,4.98,0.00,32.1,27.7,00.0,40.0,32.1,34.1,0001.0,0017.27,0010.51,0009.72
2022-08-17 16:55:00,,0833.4,5.00,0.00,32.0,27.8,00.0,40.0,32.1,34.5,0000.9,0017.78,0010.50,0009.73
2022-08-17 16:56:00,,0833.5,5.01,0.00,32.0,28.0,00.0,40.0,32.1,34.8,0000.9,0017.79,0010.42,0009.68
2022-08-17 16:57:00,,0833.4,5.01,0.00,32.0,28.1,00.0,40.0,32.2,34.2,0001.0,0017.58,0010.32,0009.57
2022-08-17 16:58:00,,0833.4,4.99,0.00,32.0,28.3,00.0,40.0,32.2,33.3,0000.8,0017.54,0010.23,0009.50
2022-08-17 16:59:00,,0833.4,4.99,0.00,31.9,28.4,00.0,40.0,32.3,33.3,0000.7,0017.09,0010.11,0009.44
